Location: Unspecified
(17.6330°N, 0.0000°E)
Time: 21:17:02
(UTC+00:00)

Courier 1B Rocket - Pass Details

Date: 30 June 2019
Orbit: 920 x 1202 km, 28.2° (Epoch: 16 July)

Event Time Altitude Azimuth Distance (km) Brightness Sun altitude
Rises 20:24:28 0° 210° (SSW) 3,993 8.1 -22.7°
Reaches altitude 10° 20:27:58 10° 195° (SSW) 3,069 7.4 -23.4°
Enters shadow 20:29:24 14° 186° (S) 2,760 7.1 -23.6°
